Location: Unspecified
(0.0000°N, 0.0000°E)
Time: 20:39:59
(UTC+00:00)

Hubble Space Telescope - Pass Details

Date: 25 March 2023
Orbit: 527 x 530 km, 28.5° (Epoch: 30 March)

Event Time Altitude Azimuth Distance (km) Brightness Sun altitude
Rises 19:11:43 0° 251° (WSW) 2,652 5.7 -16.4°
Reaches altitude 10° 19:14:03 10° 259° (WSW) 1,762 4.6 -17.0°
Maximum altitude 19:17:55 42° 330° (NNW) 761 1.7 -18.0°
Enters shadow 19:20:08 22° 29° (NNE) 1,190 2.3 -18.5°
